User: anonymous   Login
Location: Brno
(49.2000°N, 16.6330°E)
Time: 18:48:47
(UTC+02:00)
Language:

Cosmos 2227 - Orbit

View from above orbital plane
View from above orbital plane
View from above satellite
View from above satellite

Ground track
Ground track

The orbit data is extracted from the following two-line orbital elements,

1 22284U 92093A   16126.14516543  .00000331  00000-0  20144-3 0  9997
2 22284  70.9802  10.8589 0017582  70.1686 290.1329 14.13260675204993
Epoch (UTC): 05 May 2016 03:29:02
Eccentricity: 0.0017582
inclination: 70.9802°
perigee height: 835 km
apogee height: 861 km
right ascension of ascending node: 10.8589°
argument of perigee: 70.1686°
revolutions per day: 14.13260675
mean anomaly at epoch: 290.1329°
orbit number at epoch: 20499

The dashed part of the orbit path shows where the satellite is in the earth's shadow,  

DLR